contact:dominique.lefevre@mio.osupytheas.fr, maurice.libes@osupytheas.fr, didier.mallarino@osupytheas.fr
Project:EMSO http://www.emso-fr.org/EMSO-France
Depth: 2436.0 m
Title:EMSO Ligure Ouest : Data MII capteur AQUADOPP
Date,Latitude,Longitude,X_East,Y_North,Z_Up,Amplitude_X,Amplitude_Y,Amplitude_Z,Batterie,SoundSpeed,Heading,Pitch,Roll,Pressure,TIS,Speed,Direction
, degrees North, degrees East, m.s-1, m.s-1,m.s-1, 1, 1, 1, Volt, m.s-1, degree, degree, degree, dbar, degree_C, m.s-1, degree
2022-04-06T14:04:02,42.805,6.029,0.03,-0.027,0.015,101.0,101.0,100.0,13.4,1505.2,324.7,-0.8,1.8,2470.843,13.28,0.04,132.0
2022-04-06T14:07:03,42.805,6.029,0.012,-0.019,-0.002,102.0,102.0,101.0,13.4,1505.2,327.9,-0.7,1.8,2470.817,13.28,0.022,147.7
2022-04-06T14:10:03,42.805,6.029,0.023,-0.026,-0.004,104.0,102.0,102.0,13.4,1505.2,329.5,-0.8,1.8,2470.726,13.28,0.034,138.5
2022-04-06T14:13:03,42.805,6.029,0.012,-0.004,0.005,102.0,101.0,101.0,13.4,1505.2,326.3,-0.7,1.8,2470.749,13.28,0.012,108.4
2022-04-06T14:16:03,42.805,6.029,0.031,0.004,0.014,102.0,104.0,102.0,13.4,1505.2,322.5,-0.8,1.8,2470.647,13.28,0.031,82.7
2022-04-06T14:19:03,42.805,6.029,0.019,-0.013,0.037,102.0,102.0,102.0,13.4,1505.2,330.4,-0.7,1.8,2470.629,13.28,0.023,124.4
2022-04-06T14:22:03,42.805,6.029,0.005,-0.006,0.011,102.0,102.0,102.0,13.3,1505.2,328.6,-0.7,1.8,2470.608,13.28,0.007,140.2
2022-04-06T14:25:03,42.805,6.029,0.009,-0.024,-0.025,102.0,102.0,101.0,13.4,1505.2,332.5,-0.7,1.8,2470.576,13.28,0.025,159.4
2022-04-06T14:28:03,42.805,6.029,0.022,-0.016,0.01,103.0,102.0,101.0,13.4,1505.2,329.4,-0.7,1.8,2470.496,13.28,0.027,126.0
2022-04-06T14:31:03,42.805,6.029,0.009,-0.019,-0.016,103.0,102.0,101.0,13.3,1505.2,327.9,-0.7,1.8,2470.504,13.28,0.021,154.7
2022-04-06T14:34:03,42.805,6.029,0.004,-0.009,0.014,102.0,102.0,101.0,13.4,1505.2,327.6,-0.8,1.8,2470.513,13.28,0.009,156.0
2022-04-06T14:37:03,42.805,6.029,0.003,-0.036,-0.006,103.0,101.0,102.0,13.3,1505.2,327.6,-0.8,1.8,2470.392,13.28,0.036,175.2
2022-04-06T14:40:03,42.805,6.029,0.002,-0.003,-0.006,102.0,103.0,101.0,13.4,1505.2,326.8,-0.8,1.8,2470.369,13.29,0.003,146.3
2022-04-06T14:43:03,42.805,6.029,0.008,-0.02,0.022,102.0,103.0,102.0,13.4,1505.2,324.8,-0.8,1.8,2470.336,13.29,0.021,158.2
2022-04-06T14:46:03,42.805,6.029,0.019,-0.04,0.004,102.0,103.0,101.0,13.4,1505.2,324.8,-0.7,1.8,2470.306,13.29,0.044,154.6
2022-04-06T15:04:02,42.805,6.029,0.012,-0.021,-0.001,101.0,101.0,101.0,13.4,1505.2,327.0,-0.8,1.8,2470.074,13.28,0.024,150.3
2022-04-06T15:07:03,42.805,6.029,0.0,-0.03,-0.014,102.0,102.0,101.0,13.4,1505.2,324.6,-0.7,1.8,2470.013,13.28,0.03,180.0
2022-04-06T15:10:03,42.805,6.029,0.009,-0.04,0.001,102.0,102.0,101.0,13.3,1505.2,332.4,-0.8,1.9,2469.995,13.28,0.041,167.3
2022-04-06T15:13:03,42.805,6.029,0.023,-0.015,0.014,103.0,102.0,101.0,13.4,1505.2,324.8,-0.7,1.8,2469.986,13.28,0.027,123.1
2022-04-06T15:16:03,42.805,6.029,-0.005,-0.023,0.004,101.0,103.0,101.0,13.4,1505.2,329.9,-0.7,1.8,2470.04,13.29,0.023,192.3
2022-04-06T15:19:03,42.805,6.029,0.022,-0.021,0.004,102.0,103.0,101.0,13.4,1505.2,329.9,-0.7,1.8,2470.015,13.29,0.03,133.7
2022-04-06T15:22:03,42.805,6.029,-0.003,-0.014,-0.012,100.0,102.0,103.0,13.4,1505.2,332.7,-0.7,1.8,2470.031,13.29,0.014,192.1
2022-04-06T15:25:03,42.805,6.029,-0.017,-0.012,0.015,103.0,101.0,101.0,13.4,1505.2,329.4,-0.7,1.8,2470.015,13.28,0.02,234.8
2022-04-06T15:28:03,42.805,6.029,-0.005,-0.035,0.004,102.0,103.0,102.0,13.4,1505.2,332.4,-0.8,1.8,2470.042,13.28,0.035,188.1
2022-04-06T15:31:03,42.805,6.029,0.02,-0.011,-0.016,102.0,103.0,101.0,13.4,1505.2,329.2,-0.7,1.8,2470.076,13.28,0.022,118.8
2022-04-06T15:34:03,42.805,6.029,-0.001,-0.036,0.0,102.0,102.0,102.0,13.4,1505.2,330.2,-0.7,1.8,2470.061,13.28,0.036,181.6
2022-04-06T15:37:03,42.805,6.029,-0.009,-0.014,0.003,104.0,103.0,102.0,13.4,1505.2,324.5,-0.7,1.9,2470.087,13.28,0.016,212.7
2022-04-06T15:40:03,42.805,6.029,-0.006,-0.022,-0.001,103.0,102.0,101.0,13.3,1505.2,322.9,-0.8,1.8,2470.122,13.28,0.022,195.3
2022-04-06T15:43:03,42.805,6.029,0.024,-0.022,-0.014,105.0,102.0,101.0,13.4,1505.2,329.9,-0.8,1.8,2470.153,13.28,0.032,132.5
2022-04-06T15:46:03,42.805,6.029,0.02,-0.017,-0.014,103.0,102.0,102.0,13.4,1505.2,328.9,-0.7,1.8,2470.139,13.28,0.026,130.4
2022-04-06T15:49:03,42.805,6.029,0.007,-0.007,0.0,103.0,102.0,102.0,13.3,1505.2,328.4,-0.7,1.8,2470.159,13.29,0.009,135.0
2022-04-06T15:52:03,42.805,6.029,0.003,-0.023,0.021,103.0,103.0,101.0,13.4,1505.2,326.5,-0.7,1.8,2470.193,13.28,0.023,172.6
2022-04-06T15:55:03,42.805,6.029,-0.005,-0.011,0.017,105.0,102.0,102.0,13.4,1505.2,332.7,-0.8,1.8,2470.221,13.28,0.012,204.4
2022-04-06T15:58:03,42.805,6.029,0.0,-0.02,0.011,103.0,103.0,101.0,13.4,1505.2,332.3,-0.8,1.8,2470.254,13.29,0.02,180.0
2022-04-06T16:04:03,42.805,6.029,0.004,-0.006,-0.009,104.0,103.0,102.0,13.4,1505.2,326.6,-0.7,1.8,2470.315,13.28,0.007,146.3
2022-04-06T16:07:03,42.805,6.029,0.014,0.01,0.001,104.0,103.0,101.0,13.4,1505.2,322.6,-0.7,1.8,2470.367,13.28,0.017,54.5
2022-04-06T16:10:03,42.805,6.029,0.018,-0.025,0.033,102.0,103.0,102.0,13.4,1505.2,324.9,-0.8,1.8,2470.392,13.28,0.03,144.2
2022-04-06T16:13:03,42.805,6.029,0.008,-0.023,0.026,104.0,104.0,102.0,13.4,1505.2,331.8,-0.7,1.8,2470.447,13.28,0.024,160.8
2022-04-06T16:16:03,42.805,6.029,-0.01,-0.03,-0.019,103.0,103.0,101.0,13.3,1505.2,323.6,-0.8,1.9,2470.437,13.28,0.031,198.4
2022-04-06T16:19:03,42.805,6.029,0.009,-0.012,-0.012,103.0,102.0,101.0,13.4,1505.2,325.4,-0.8,1.8,2470.463,13.28,0.015,143.1
2022-04-06T16:22:03,42.805,6.029,0.024,-0.054,-0.015,102.0,104.0,100.0,13.4,1505.2,331.1,-0.7,1.8,2470.518,13.28,0.059,156.0
2022-04-06T16:25:03,42.805,6.029,0.025,-0.034,0.0,103.0,102.0,101.0,13.4,1505.2,326.3,-0.8,1.9,2470.509,13.28,0.042,143.7
2022-04-06T16:28:03,42.805,6.029,0.021,-0.022,-0.016,103.0,102.0,102.0,13.4,1505.2,324.9,-0.7,1.8,2470.513,13.28,0.03,136.3
2022-04-06T16:31:03,42.805,6.029,0.025,-0.026,0.026,102.0,103.0,102.0,13.4,1505.2,329.5,-0.8,1.8,2470.507,13.28,0.036,136.1
2022-04-06T16:34:03,42.805,6.029,0.003,-0.025,-0.017,103.0,102.0,102.0,13.4,1505.2,322.3,-0.8,1.8,2470.55,13.28,0.025,173.2
2022-04-06T16:37:03,42.805,6.029,0.016,-0.029,-0.016,103.0,103.0,101.0,13.4,1505.2,326.3,-0.8,1.8,2470.571,13.28,0.033,151.1
2022-04-06T16:40:03,42.805,6.029,0.031,-0.019,0.019,103.0,102.0,101.0,13.4,1505.2,332.2,-0.7,1.8,2470.554,13.28,0.036,121.5
2022-04-06T16:43:03,42.805,6.029,0.015,-0.027,-0.015,102.0,103.0,102.0,13.4,1505.2,330.2,-0.8,1.8,2470.594,13.29,0.03,150.9
2022-04-06T16:46:03,42.805,6.029,0.015,-0.026,0.008,103.0,103.0,101.0,13.3,1505.2,332.3,-0.8,1.8,2470.599,13.28,0.03,150.0
2022-04-06T16:49:03,42.805,6.029,0.019,-0.003,-0.02,104.0,103.0,101.0,13.3,1505.2,323.2,-0.7,1.8,2470.64,13.29,0.019,99.0
2022-04-06T16:52:03,42.805,6.029,0.014,-0.002,0.012,102.0,103.0,101.0,13.4,1505.2,329.7,-0.8,1.8,2470.632,13.29,0.014,98.1
2022-04-06T16:55:03,42.805,6.029,0.006,0.007,0.019,103.0,103.0,101.0,13.4,1505.2,330.6,-0.7,1.8,2470.605,13.29,0.009,40.6
2022-04-06T16:58:03,42.805,6.029,-0.004,-0.016,0.016,105.0,103.0,102.0,13.4,1505.2,329.7,-0.7,1.8,2470.623,13.29,0.016,194.0
2022-04-06T17:04:03,42.805,6.029,-0.011,-0.02,-0.008,104.0,102.0,103.0,13.4,1505.2,329.7,-0.7,1.8,2470.693,13.28,0.022,208.8
2022-04-06T17:07:03,42.805,6.029,0.02,-0.019,-0.002,102.0,103.0,102.0,13.4,1505.2,324.6,-0.8,1.8,2470.639,13.28,0.027,133.5
2022-04-06T17:10:03,42.805,6.029,0.004,-0.017,-0.004,104.0,103.0,102.0,13.4,1505.2,329.2,-0.8,1.8,2470.659,13.28,0.017,166.8
2022-04-06T17:13:03,42.805,6.029,-0.003,-0.021,0.003,104.0,101.0,102.0,13.4,1505.2,333.0,-0.7,1.8,2470.67,13.28,0.021,188.1
2022-04-06T17:16:03,42.805,6.029,0.024,-0.001,0.015,103.0,103.0,102.0,13.4,1505.2,322.8,-0.8,1.8,2470.687,13.28,0.024,92.4
2022-04-06T17:19:03,42.805,6.029,0.009,-0.031,-0.029,104.0,103.0,102.0,13.4,1505.2,325.6,-0.7,1.8,2470.656,13.28,0.032,163.8
2022-04-06T17:22:03,42.805,6.029,-0.015,-0.019,-0.013,103.0,103.0,102.0,13.3,1505.2,327.0,-0.8,1.8,2470.681,13.28,0.024,218.3
2022-04-06T17:25:03,42.805,6.029,-0.004,-0.012,0.016,103.0,103.0,101.0,13.4,1505.2,330.2,-0.7,1.8,2470.697,13.29,0.012,198.4
2022-04-06T17:28:03,42.805,6.029,0.014,-0.009,0.013,104.0,103.0,102.0,13.4,1505.2,329.9,-0.7,1.8,2470.671,13.29,0.016,122.7
2022-04-06T17:31:03,42.805,6.029,0.026,-0.032,0.042,105.0,104.0,102.0,13.4,1505.2,323.2,-0.7,1.8,2470.681,13.29,0.041,140.9
2022-04-06T17:34:03,42.805,6.029,-0.009,-0.012,-0.014,103.0,103.0,103.0,13.4,1505.2,324.6,-0.7,1.8,2470.656,13.29,0.015,216.9
2022-04-06T17:37:03,42.805,6.029,-0.003,-0.027,-0.014,104.0,104.0,102.0,13.4,1505.2,330.2,-0.7,1.8,2470.7,13.29,0.027,186.3
2022-04-06T17:40:03,42.805,6.029,0.013,-0.004,0.011,104.0,104.0,101.0,13.4,1505.2,327.7,-0.8,1.8,2470.699,13.29,0.013,107.1
2022-04-06T17:43:03,42.805,6.029,0.002,-0.028,-0.016,104.0,102.0,102.0,13.3,1505.2,329.9,-0.8,1.8,2470.704,13.29,0.028,175.9
2022-04-06T17:46:03,42.805,6.029,0.001,-0.02,-0.002,102.0,103.0,102.0,13.3,1505.2,328.7,-0.7,1.8,2470.65,13.29,0.02,177.1
2022-04-06T17:49:03,42.805,6.029,0.001,0.008,0.003,104.0,102.0,102.0,13.4,1505.2,330.2,-0.8,1.8,2470.68,13.29,0.008,7.1
2022-04-06T17:52:03,42.805,6.029,0.0,-0.024,-0.022,102.0,103.0,102.0,13.4,1505.2,326.3,-0.7,1.8,2470.679,13.29,0.024,180.0
2022-04-06T17:55:03,42.805,6.029,0.002,0.0,-0.011,103.0,104.0,102.0,13.4,1505.2,328.4,-0.8,1.8,2470.667,13.29,0.002,90.0
2022-04-06T17:58:03,42.805,6.029,0.03,-0.029,-0.012,104.0,103.0,102.0,13.4,1505.2,325.4,-0.8,1.8,2470.702,13.29,0.041,134.0
2022-04-06T18:04:03,42.805,6.029,0.015,-0.005,-0.003,103.0,103.0,102.0,13.4,1505.2,332.2,-0.7,1.8,2470.736,13.28,0.015,108.4
2022-04-06T18:07:03,42.805,6.029,-0.002,-0.01,-0.008,103.0,103.0,102.0,13.3,1505.2,329.9,-0.8,1.8,2470.715,13.28,0.01,191.3
2022-04-06T18:10:03,42.805,6.029,-0.008,-0.009,-0.008,105.0,103.0,103.0,13.3,1505.2,331.6,-0.7,1.8,2470.711,13.28,0.012,221.6
2022-04-06T18:13:03,42.805,6.029,-0.006,-0.027,0.002,104.0,104.0,102.0,13.4,1505.2,332.9,-0.8,1.8,2470.739,13.28,0.027,192.5
2022-04-06T18:16:03,42.805,6.029,0.007,-0.012,0.0,103.0,104.0,102.0,13.4,1505.2,328.2,-0.8,1.8,2470.719,13.28,0.013,149.7
2022-04-06T18:19:03,42.805,6.029,0.008,-0.02,0.009,101.0,104.0,100.0,13.3,1505.2,328.4,-0.8,1.8,2470.77,13.28,0.021,158.2
2022-04-06T18:22:03,42.805,6.029,-0.003,-0.024,0.0,105.0,104.0,102.0,13.4,1505.2,324.7,-0.7,1.8,2470.725,13.29,0.024,187.1
2022-04-06T18:25:03,42.805,6.029,-0.006,-0.016,0.022,103.0,103.0,102.0,13.3,1505.2,326.7,-0.8,1.8,2470.736,13.29,0.017,200.6
2022-04-06T18:28:03,42.805,6.029,0.004,-0.001,0.019,103.0,106.0,102.0,13.4,1505.2,331.7,-0.7,1.8,2470.774,13.29,0.004,104.0
2022-04-06T18:31:03,42.805,6.029,0.019,-0.019,0.027,103.0,103.0,102.0,13.3,1505.2,322.5,-0.8,1.8,2470.776,13.29,0.026,135.0
2022-04-06T18:34:03,42.805,6.029,0.023,-0.005,0.005,103.0,103.0,102.0,13.3,1505.2,329.4,-0.8,1.8,2470.723,13.29,0.023,102.3
2022-04-06T18:37:03,42.805,6.029,0.018,-0.006,0.015,103.0,103.0,101.0,13.4,1505.2,325.6,-0.7,1.9,2470.753,13.29,0.018,108.4
2022-04-06T18:40:03,42.805,6.029,-0.002,-0.02,0.051,104.0,103.0,102.0,13.3,1505.2,332.1,-0.7,1.8,2470.774,13.29,0.02,185.7
2022-04-06T18:43:03,42.805,6.029,0.017,-0.016,0.01,103.0,102.0,102.0,13.4,1505.2,330.5,-0.7,1.8,2470.724,13.29,0.023,133.3
2022-04-06T18:46:03,42.805,6.029,0.0,-0.047,0.013,104.0,104.0,102.0,13.3,1505.2,328.4,-0.8,1.8,2470.731,13.28,0.047,180.0
2022-04-06T18:49:03,42.805,6.029,0.008,-0.04,-0.004,103.0,104.0,101.0,13.3,1505.2,332.9,-0.7,1.8,2470.743,13.28,0.04,168.7
2022-04-06T18:52:03,42.805,6.029,0.002,-0.035,-0.035,103.0,104.0,102.0,13.4,1505.2,325.3,-0.8,1.8,2470.77,13.28,0.035,176.7
2022-04-06T18:55:03,42.805,6.029,0.002,-0.01,0.011,103.0,102.0,102.0,13.4,1505.2,326.5,-0.7,1.8,2470.756,13.28,0.01,168.7
2022-04-06T18:58:03,42.805,6.029,0.004,-0.028,0.002,104.0,103.0,102.0,13.4,1505.2,327.6,-0.7,1.8,2470.763,13.28,0.028,171.9
2022-04-06T19:04:03,42.805,6.029,0.003,-0.017,0.019,103.0,103.0,102.0,13.4,1505.2,324.3,-0.7,1.8,2470.819,13.28,0.017,170.0
2022-04-06T19:07:03,42.805,6.029,0.012,0.008,-0.004,104.0,103.0,102.0,13.4,1505.2,325.0,-0.8,1.8,2470.791,13.28,0.014,56.3
2022-04-06T19:10:03,42.805,6.029,0.024,-0.012,-0.009,105.0,103.0,102.0,13.4,1505.2,328.8,-0.8,1.8,2470.765,13.28,0.026,116.6
2022-04-06T19:13:03,42.805,6.029,0.005,-0.006,-0.027,104.0,104.0,102.0,13.4,1505.2,322.8,-0.8,1.9,2470.778,13.28,0.007,140.2
2022-04-06T19:16:03,42.805,6.029,0.008,-0.015,-0.009,103.0,104.0,102.0,13.4,1505.2,325.5,-0.7,1.8,2470.801,13.28,0.017,151.9
2022-04-06T19:19:03,42.805,6.029,-0.011,-0.014,-0.005,102.0,103.0,102.0,13.3,1505.2,323.7,-0.7,1.8,2470.79,13.28,0.017,218.2
2022-04-06T19:22:03,42.805,6.029,-0.007,-0.015,0.007,103.0,103.0,102.0,13.4,1505.2,324.8,-0.8,1.8,2470.791,13.28,0.016,205.0
2022-04-06T19:25:03,42.805,6.029,-0.004,-0.028,-0.006,104.0,105.0,101.0,13.4,1505.2,327.6,-0.8,1.9,2470.815,13.28,0.028,188.1
2022-04-06T19:28:03,42.805,6.029,-0.005,0.001,0.006,104.0,103.0,101.0,13.4,1505.2,332.7,-0.8,1.8,2470.756,13.28,0.005,281.3
2022-04-06T19:31:03,42.805,6.029,0.024,-0.009,0.04,103.0,108.0,102.0,13.4,1505.2,325.4,-0.8,1.8,2470.772,13.28,0.025,110.6
2022-04-06T19:34:03,42.805,6.029,0.023,-0.015,0.011,102.0,104.0,102.0,13.3,1505.2,326.7,-0.8,1.8,2470.811,13.28,0.027,123.1
2022-04-06T19:37:03,42.805,6.029,0.003,-0.017,-0.009,103.0,102.0,101.0,13.4,1505.2,332.1,-0.8,1.8,2470.77,13.28,0.017,170.0
2022-04-06T19:40:03,42.805,6.029,-0.008,-0.023,-0.006,104.0,103.0,102.0,13.3,1505.2,326.6,-0.8,1.8,2470.778,13.29,0.024,199.2
2022-04-06T19:43:03,42.805,6.029,0.002,-0.01,0.007,103.0,103.0,101.0,13.4,1505.2,328.0,-0.8,1.8,2470.809,13.29,0.01,168.7
2022-04-06T19:46:03,42.805,6.029,0.003,-0.008,-0.01,104.0,103.0,102.0,13.3,1505.2,327.7,-0.8,1.8,2470.785,13.29,0.008,159.4
2022-04-06T19:49:03,42.805,6.029,0.01,-0.006,0.009,103.0,103.0,101.0,13.4,1505.2,327.2,-0.7,1.8,2470.791,13.29,0.011,121.0
2022-04-06T19:52:03,42.805,6.029,-0.002,-0.023,0.0,104.0,102.0,102.0,13.4,1505.2,328.0,-0.8,1.9,2470.772,13.29,0.023,185.0
2022-04-06T19:55:03,42.805,6.029,0.019,-0.004,0.037,103.0,103.0,103.0,13.4,1505.2,325.1,-0.7,1.9,2470.779,13.29,0.019,101.9
2022-04-06T19:58:03,42.805,6.029,-0.001,-0.009,-0.009,102.0,101.0,101.0,13.3,1505.2,332.7,-0.8,1.9,2470.768,13.29,0.009,186.3
2022-04-06T20:04:03,42.805,6.029,0.004,-0.015,-0.015,102.0,103.0,103.0,13.4,1505.2,323.2,-0.8,1.8,2470.842,13.28,0.015,165.1
2022-04-06T20:07:03,42.805,6.029,0.014,-0.005,-0.011,103.0,103.0,101.0,13.3,1505.2,328.6,-0.8,1.8,2470.786,13.28,0.014,109.6
2022-04-06T20:10:03,42.805,6.029,0.004,-0.009,0.019,104.0,102.0,101.0,13.4,1505.2,326.3,-0.7,1.8,2470.768,13.28,0.009,156.0
2022-04-06T20:13:03,42.805,6.029,0.008,-0.008,0.028,103.0,103.0,101.0,13.4,1505.2,325.9,-0.7,1.8,2470.784,13.28,0.011,135.0
2022-04-06T20:16:03,42.805,6.029,0.024,-0.03,-0.012,102.0,102.0,102.0,13.4,1505.2,329.1,-0.8,1.8,2470.791,13.28,0.038,141.3
2022-04-06T20:19:03,42.805,6.029,-0.003,-0.013,0.025,102.0,103.0,101.0,13.4,1505.2,323.0,-0.8,1.8,2470.768,13.28,0.013,193.0
2022-04-06T20:22:03,42.805,6.029,-0.002,-0.01,-0.012,103.0,103.0,102.0,13.4,1505.2,330.4,-0.7,1.8,2470.753,13.28,0.01,191.3
2022-04-06T20:25:03,42.805,6.029,0.003,-0.009,0.002,104.0,103.0,101.0,13.4,1505.2,326.7,-0.7,1.8,2470.743,13.28,0.009,161.6
2022-04-06T20:28:03,42.805,6.029,0.013,-0.031,0.009,104.0,107.0,102.0,13.4,1505.2,327.7,-0.8,1.8,2470.769,13.28,0.033,157.3
2022-04-06T20:31:03,42.805,6.029,0.016,-0.038,-0.009,103.0,102.0,102.0,13.4,1505.2,326.3,-0.8,1.8,2470.762,13.28,0.041,157.2
2022-04-06T20:34:03,42.805,6.029,0.033,-0.019,0.012,103.0,103.0,102.0,13.3,1505.2,329.5,-0.7,1.8,2470.777,13.28,0.038,119.9
2022-04-06T20:37:03,42.805,6.029,0.012,-0.027,-0.035,103.0,103.0,102.0,13.4,1505.2,326.9,-0.7,1.8,2470.807,13.28,0.029,156.0
2022-04-06T20:40:03,42.805,6.029,0.0,-0.021,-0.018,104.0,104.0,102.0,13.4,1505.2,323.2,-0.8,1.8,2470.747,13.28,0.021,180.0
2022-04-06T20:43:03,42.805,6.029,0.014,-0.015,0.012,104.0,104.0,102.0,13.4,1505.2,322.4,-0.7,1.8,2470.775,13.28,0.02,137.0
2022-04-06T20:46:03,42.805,6.029,0.006,-0.012,0.011,103.0,105.0,102.0,13.4,1505.2,329.5,-0.7,1.9,2470.737,13.28,0.013,153.4
2022-04-06T20:49:03,42.805,6.029,0.011,0.001,0.003,104.0,104.0,103.0,13.4,1505.2,325.4,-0.8,1.8,2470.755,13.28,0.011,84.8
2022-04-06T20:52:03,42.805,6.029,0.016,-0.037,-0.003,103.0,103.0,102.0,13.3,1505.2,329.7,-0.8,1.8,2470.776,13.28,0.04,156.6
2022-04-06T20:55:03,42.805,6.029,0.025,-0.062,0.008,103.0,103.0,103.0,13.4,1505.2,324.8,-0.7,1.8,2470.787,13.28,0.066,158.0
2022-04-06T20:58:03,42.805,6.029,0.023,-0.02,-0.014,104.0,105.0,102.0,13.4,1505.2,330.2,-0.8,1.8,2470.781,13.29,0.03,131.0
2022-04-06T21:01:03,42.805,6.029,0.024,-0.027,-0.001,103.0,104.0,102.0,13.3,1505.2,331.8,-0.8,1.8,2470.773,13.28,0.036,138.4
2022-04-06T21:04:03,42.805,6.029,-0.004,-0.028,-0.002,102.0,104.0,103.0,13.3,1505.2,332.0,-0.7,1.8,2470.748,13.28,0.028,188.1
2022-04-06T21:07:03,42.805,6.029,0.026,-0.03,-0.029,104.0,103.0,102.0,13.3,1505.2,327.6,-0.8,1.9,2470.781,13.28,0.039,139.1
2022-04-06T21:10:03,42.805,6.029,-0.001,-0.021,-0.02,102.0,104.0,102.0,13.4,1505.2,331.2,-0.7,1.8,2470.741,13.29,0.021,182.7
2022-04-06T21:13:03,42.805,6.029,0.027,-0.018,0.007,103.0,104.0,102.0,13.4,1505.2,325.5,-0.8,1.8,2470.767,13.29,0.032,123.7
2022-04-06T21:16:03,42.805,6.029,0.024,-0.025,0.021,104.0,104.0,102.0,13.3,1505.2,323.3,-0.7,1.8,2470.767,13.28,0.034,136.2
2022-04-06T21:19:03,42.805,6.029,-0.009,-0.03,-0.03,103.0,103.0,102.0,13.3,1505.2,328.6,-0.8,1.8,2470.731,13.28,0.031,196.7
2022-04-06T21:22:03,42.805,6.029,0.001,-0.016,0.018,104.0,103.0,102.0,13.4,1505.2,328.9,-0.7,1.8,2470.765,13.28,0.016,176.4
2022-04-06T21:25:03,42.805,6.029,0.031,-0.026,-0.005,103.0,104.0,101.0,13.3,1505.2,324.1,-0.8,1.8,2470.756,13.28,0.04,130.0
2022-04-06T21:28:03,42.805,6.029,0.017,-0.037,-0.008,105.0,104.0,102.0,13.4,1505.2,331.7,-0.7,1.8,2470.778,13.28,0.04,155.3
2022-04-06T21:31:03,42.805,6.029,0.017,-0.018,-0.013,105.0,103.0,101.0,13.3,1505.2,323.0,-0.8,1.8,2470.76,13.28,0.024,136.6
2022-04-06T21:34:03,42.805,6.029,0.013,-0.011,0.007,104.0,104.0,103.0,13.3,1505.2,328.4,-0.8,1.8,2470.774,13.28,0.017,130.2
2022-04-06T21:37:03,42.805,6.029,0.016,-0.039,-0.013,104.0,105.0,103.0,13.4,1505.2,329.5,-0.8,1.8,2470.796,13.28,0.042,157.7
2022-04-06T21:40:03,42.805,6.029,0.021,-0.022,0.01,104.0,104.0,102.0,13.3,1505.2,328.2,-0.8,1.8,2470.771,13.29,0.03,136.3
2022-04-06T21:43:03,42.805,6.029,0.022,-0.026,-0.002,104.0,103.0,102.0,13.4,1505.2,324.8,-0.8,1.8,2470.77,13.29,0.034,139.8
2022-04-06T21:46:03,42.805,6.029,0.0,-0.033,-0.024,104.0,104.0,102.0,13.3,1505.2,326.0,-0.8,1.8,2470.805,13.29,0.033,180.0
2022-04-06T21:49:03,42.805,6.029,0.007,-0.01,-0.012,103.0,104.0,102.0,13.4,1505.2,331.8,-0.8,1.8,2470.781,13.29,0.012,145.0
2022-04-06T21:52:03,42.805,6.029,0.014,-0.017,-0.005,104.0,104.0,102.0,13.4,1505.2,324.0,-0.7,1.8,2470.774,13.29,0.022,140.5
2022-04-06T21:55:03,42.805,6.029,0.008,-0.021,0.0,104.0,103.0,102.0,13.4,1505.2,322.3,-0.8,1.8,2470.793,13.29,0.022,159.1
2022-04-06T21:58:03,42.805,6.029,-0.007,-0.007,-0.015,103.0,104.0,103.0,13.4,1505.2,324.8,-0.7,1.8,2470.761,13.29,0.009,225.0
2022-04-06T22:04:03,42.805,6.029,0.025,-0.027,0.036,104.0,104.0,102.0,13.4,1505.2,330.4,-0.8,1.8,2470.853,13.28,0.036,137.2
2022-04-06T22:07:03,42.805,6.029,-0.002,-0.016,0.003,105.0,102.0,102.0,13.4,1505.2,325.7,-0.7,1.9,2470.8,13.28,0.016,187.1
2022-04-06T22:10:03,42.805,6.029,0.014,-0.019,0.016,103.0,103.0,102.0,13.3,1505.2,326.5,-0.8,1.8,2470.831,13.28,0.023,143.6
2022-04-06T22:13:03,42.805,6.029,0.012,-0.018,0.016,101.0,104.0,103.0,13.3,1505.2,329.0,-0.7,1.8,2470.819,13.28,0.021,146.3
2022-04-06T22:16:03,42.805,6.029,0.005,-0.022,-0.014,103.0,104.0,102.0,13.4,1505.2,332.1,-0.7,1.8,2470.804,13.28,0.022,167.2
2022-04-06T22:19:03,42.805,6.029,0.005,-0.025,0.037,104.0,105.0,102.0,13.4,1505.2,332.5,-0.7,1.8,2470.791,13.28,0.025,168.7
2022-04-06T22:22:03,42.805,6.029,0.01,-0.013,-0.007,104.0,104.0,102.0,13.4,1505.2,329.8,-0.8,1.8,2470.823,13.29,0.016,142.4
2022-04-06T22:25:03,42.805,6.029,0.018,-0.022,-0.02,103.0,105.0,102.0,13.4,1505.2,329.7,-0.8,1.8,2470.835,13.29,0.028,140.7
2022-04-06T22:28:03,42.805,6.029,-0.016,-0.017,-0.007,103.0,104.0,102.0,13.4,1505.2,326.8,-0.7,1.9,2470.779,13.29,0.023,223.3
2022-04-06T22:31:03,42.805,6.029,0.007,-0.03,-0.035,103.0,103.0,103.0,13.4,1505.2,330.3,-0.8,1.8,2470.812,13.29,0.03,166.9
2022-04-06T22:34:03,42.805,6.029,0.009,-0.014,-0.013,103.0,104.0,101.0,13.4,1505.2,326.3,-0.7,1.8,2470.825,13.29,0.016,147.3
2022-04-06T22:37:03,42.805,6.029,0.0,-0.013,0.023,104.0,105.0,102.0,13.4,1505.2,327.2,-0.7,1.8,2470.802,13.29,0.013,180.0
2022-04-06T22:40:03,42.805,6.029,-0.009,-0.025,-0.008,104.0,104.0,102.0,13.4,1505.2,329.2,-0.8,1.8,2470.806,13.28,0.026,199.8
2022-04-06T22:43:03,42.805,6.029,0.002,-0.028,-0.018,105.0,102.0,101.0,13.4,1505.2,323.8,-0.7,1.8,2470.774,13.29,0.028,175.9
2022-04-06T22:46:03,42.805,6.029,-0.01,-0.015,-0.012,103.0,104.0,102.0,13.4,1505.2,327.0,-0.7,1.8,2470.821,13.29,0.018,213.7
2022-04-06T22:49:03,42.805,6.029,0.0,-0.013,-0.01,103.0,103.0,101.0,13.4,1505.2,322.3,-0.8,1.8,2470.755,13.29,0.013,180.0
2022-04-06T22:52:03,42.805,6.029,0.024,-0.03,-0.003,104.0,103.0,101.0,13.4,1505.2,325.1,-0.8,1.8,2470.795,13.29,0.038,141.3
2022-04-06T22:55:03,42.805,6.029,0.0,-0.027,-0.021,103.0,104.0,101.0,13.4,1505.2,323.5,-0.8,1.8,2470.778,13.29,0.026,180.0
2022-04-06T22:58:03,42.805,6.029,-0.001,0.013,-0.009,104.0,104.0,102.0,13.4,1505.2,325.1,-0.7,1.8,2470.788,13.29,0.013,355.6
2022-04-06T23:04:03,42.805,6.029,0.002,-0.01,-0.009,104.0,103.0,102.0,13.4,1505.2,323.2,-0.8,1.8,2470.829,13.28,0.01,168.7
2022-04-06T23:07:03,42.805,6.029,0.017,-0.003,0.004,104.0,105.0,102.0,13.4,1505.2,326.6,-0.7,1.8,2470.761,13.28,0.017,100.0
2022-04-06T23:10:03,42.805,6.029,0.01,-0.007,-0.015,103.0,103.0,102.0,13.4,1505.2,324.3,-0.8,1.8,2470.808,13.28,0.012,125.0
2022-04-06T23:13:03,42.805,6.029,0.0,-0.028,-0.003,105.0,102.0,102.0,13.4,1505.2,324.9,-0.7,1.8,2470.752,13.28,0.028,180.0
2022-04-06T23:16:03,42.805,6.029,-0.008,-0.014,0.002,104.0,103.0,102.0,13.4,1505.2,327.8,-0.8,1.8,2470.8,13.28,0.016,209.7
2022-04-06T23:19:03,42.805,6.029,0.001,-0.029,0.017,104.0,103.0,101.0,13.4,1505.2,327.7,-0.8,1.8,2470.785,13.29,0.029,178.0
2022-04-06T23:22:03,42.805,6.029,-0.011,-0.015,0.0,102.0,104.0,102.0,13.4,1505.2,324.9,-0.8,1.8,2470.783,13.29,0.018,216.3
2022-04-06T23:25:03,42.805,6.029,-0.001,-0.007,-0.016,104.0,103.0,102.0,13.4,1505.2,333.0,-0.8,1.8,2470.757,13.29,0.007,188.1
2022-04-06T23:28:03,42.805,6.029,-0.007,-0.006,0.018,103.0,103.0,102.0,13.4,1505.2,328.9,-0.8,1.8,2470.746,13.29,0.009,229.4
2022-04-06T23:31:03,42.805,6.029,0.006,-0.013,0.0,104.0,102.0,102.0,13.4,1505.2,332.5,-0.8,1.8,2470.758,13.29,0.014,155.2
2022-04-06T23:34:03,42.805,6.029,0.01,-0.032,-0.022,104.0,103.0,102.0,13.3,1505.2,332.9,-0.7,1.8,2470.759,13.29,0.033,162.6
2022-04-06T23:37:03,42.805,6.029,-0.001,-0.01,0.017,102.0,103.0,103.0,13.3,1505.2,331.8,-0.7,1.8,2470.74,13.29,0.01,185.7
2022-04-06T23:40:03,42.805,6.029,0.012,-0.006,0.013,105.0,104.0,102.0,13.3,1505.2,327.4,-0.8,1.8,2470.736,13.29,0.013,116.6
2022-04-06T23:43:03,42.805,6.029,0.003,-0.035,0.0,103.0,106.0,102.0,13.4,1505.2,326.4,-0.8,1.8,2470.751,13.29,0.035,175.1
2022-04-06T23:46:03,42.805,6.029,0.01,0.0,0.022,104.0,103.0,102.0,13.4,1505.2,324.5,-0.8,1.8,2470.735,13.29,0.01,90.0
2022-04-06T23:49:03,42.805,6.029,0.004,-0.01,-0.006,105.0,105.0,102.0,13.4,1505.2,328.1,-0.8,1.8,2470.71,13.29,0.01,158.2
2022-04-06T23:52:03,42.805,6.029,-0.026,0.0,-0.005,104.0,104.0,103.0,13.4,1505.2,326.7,-0.7,1.8,2470.742,13.29,0.026,270.0
2022-04-06T23:55:03,42.805,6.029,0.003,-0.029,-0.02,105.0,103.0,102.0,13.4,1505.2,323.2,-0.8,1.8,2470.743,13.29,0.029,174.1
2022-04-06T23:58:03,42.805,6.029,0.005,-0.007,-0.008,103.0,103.0,102.0,13.4,1505.2,327.9,-0.8,1.8,2470.709,13.29,0.008,144.5
